EW2910 Weather Reports


Display with metric or nautical units.
time (UTC)temp
F
wind
direction
speed
MPH
gust
MPH
rain 1hr
in
rain 24hr
in
rain mn
in
humidity
%
barometer
mb
20260510173057 93 274 2.0 6.0 0.00 0.00 0.00 54 1016.0
20260510171621 93 0 0.0 7.0 0.00 0.00 0.00 53 1016.1
20260510170100 92 268 3.0 9.0 0.00 0.00 0.00 55 1016.4
20260510164604 90 181 3.0 11.0 0.00 0.00 0.00 56 1016.5
20260510163109 89 0 3.0 11.0 0.00 0.00 0.00 57 1016.7
20260510161558 88 278 3.0 8.0 0.00 0.00 0.00 62 1016.8
20260510160100 87 227 4.0 8.0 0.00 0.00 0.00 65 1016.8
20260510154601 88 245 3.0 10.0 0.00 0.00 0.00 59 1017.0
20260510153100 87 239 2.0 10.0 0.00 0.00 0.00 66 1016.8
20260510151557 87 236 5.0 12.0 0.00 0.00 0.00 69 1016.7
20260510150056 86 234 5.0 9.0 0.00 0.00 0.00 69 1016.7
20260510144607 85 195 5.0 11.0 0.00 0.00 0.00 70 1016.7
20260510143057 84 226 5.0 10.0 0.00 0.00 0.00 75 1016.5
20260510141559 82 223 3.0 6.0 0.00 0.00 0.00 79 1016.5
20260510140058 81 0 3.0 8.0 0.00 0.00 0.00 81 1016.8
20260510134558 81 205 3.0 7.0 0.00 0.00 0.00 80 1016.6
20260510133102 81 222 1.0 8.0 0.00 0.00 0.00 78 1016.3
20260510131600 81 0 2.0 9.0 0.00 0.00 0.00 79 1016.2
20260510130100 79 203 3.0 9.0 0.00 0.00 0.00 82 1016.1
20260510124603 78 218 2.0 5.0 0.00 0.00 0.00 87 1016.1
20260510123108 76 186 3.0 5.0 0.00 0.00 0.00 91 1016.0
20260510121559 75 0 0.0 0.0 0.00 0.00 0.00 94 1016.0
20260510120109 74 0 0.0 0.0 0.00 0.00 0.00 95 1015.7
20260510114622 73 0 0.0 0.0 0.00 0.00 0.00 95 1015.4
20260510113102 72 0 0.0 0.0 0.00 0.00 0.00 95 1015.6
20260510111600 72 0 0.0 0.0 0.00 0.00 0.00 95 1015.3
20260510110104 72 0 0.0 0.0 0.00 0.00 0.00 95 1015.0
20260510104600 72 0 0.0 0.0 0.00 0.00 0.00 95 1014.5
20260510103102 72 0 0.0 0.0 0.00 0.00 0.00 95 1014.4
20260510101605 72 0 0.0 0.0 0.00 0.00 0.00 94 1014.1
20260510100110 72 0 0.0 0.0 0.00 0.00 0.00 94 1013.8
20260510094559 72 0 0.0 0.0 0.00 0.00 0.00 94 1013.9
20260510093100 73 0 0.0 0.0 0.00 0.00 0.00 94 1013.8
20260510091601 73 0 0.0 0.0 0.00 0.00 0.00 93 1013.7
20260510090059 73 0 0.0 0.0 0.00 0.00 0.00 93 1013.8
20260510084613 73 0 0.0 0.0 0.00 0.00 0.00 93 1013.5
20260510083059 73 0 0.0 0.0 0.00 0.00 0.00 92 1013.4
20260510081608 74 0 0.0 0.0 0.00 0.00 0.00 92 1013.4
20260510080105 73 0 0.0 0.0 0.00 0.00 0.00 92 1013.5
20260510074604 73 0 0.0 0.0 0.00 0.00 0.00 91 1013.6
20260510073100 74 0 0.0 0.0 0.00 0.00 0.00 91 1013.8
20260510071559 74 0 0.0 0.0 0.00 0.00 0.00 91 1014.0
20260510070113 74 0 0.0 0.0 0.00 0.00 0.00 91 1013.9
20260510064558 73 0 0.0 0.0 0.00 0.00 0.00 92 1014.2
20260510063057 73 0 0.0 0.0 0.00 0.00 0.00 91 1014.3
20260510061559 73 0 0.0 0.0 0.00 0.00 0.00 91 1014.3
20260510060059 74 0 0.0 0.0 0.00 0.00 0.00 90 1014.4
20260510054601 73 0 0.0 0.0 0.00 0.00 0.00 91 1014.6
20260510053100 74 0 0.0 0.0 0.00 0.00 0.00 90 1014.9
20260510051608 74 0 0.0 0.0 0.00 0.00 0.00 89 1014.8
20260510050111 75 0 0.0 0.0 0.00 0.00 0.00 89 1014.8
20260510044558 75 0 0.0 0.0 0.00 0.00 0.00 89 1015.0
20260510043059 75 0 0.0 0.0 0.00 0.00 0.00 89 1015.2
20260510041610 74 0 0.0 0.0 0.00 0.00 0.00 89 1015.2
20260510040115 74 0 0.0 0.0 0.00 0.00 0.00 89 1015.0
20260510034600 75 0 0.0 0.0 0.00 0.00 0.00 88 1015.1
20260510033104 75 0 0.0 0.0 0.00 0.00 0.00 88 1015.1
20260510031604 75 0 0.0 0.0 0.00 0.00 0.00 88 1015.1
20260510024603 76 0 0.0 6.0 0.00 0.00 0.00 87 1015.2
20260510023100 76 34 3.0 7.0 0.00 0.00 0.00 87 1015.0
20260510021646 77 50 5.0 9.0 0.00 0.00 0.00 86 1014.7
20260510014601 78 51 4.0 11.0 0.00 0.00 0.00 84 1014.6
20260510013114 78 56 5.0 8.0 0.00 0.00 0.00 83 1014.3
20260510011600 78 54 6.0 10.0 0.00 0.00 0.00 82 1014.2
20260510004601 79 14 5.0 11.0 0.00 0.00 0.00 81 1013.6
20260510003100 80 44 5.0 15.0 0.00 0.00 0.00 80 1013.3
20260510001601 81 29 8.0 13.0 0.00 0.00 0.00 78 1013.2
20260510000100 83 355 6.0 15.0 0.00 0.00 0.00 74 1012.9
20260509234559 87 319 1.0 4.0 0.00 0.00 0.00 53 1012.4
20260509233102 87 225 1.0 7.0 0.00 0.00 0.00 54 1012.2
20260509231604 88 272 1.0 6.0 0.00 0.00 0.00 55 1012.1
20260509230100 89 0 2.0 7.0 0.00 0.00 0.00 55 1011.9
20260509224559 90 0 0.0 6.0 0.00 0.00 0.00 54 1011.7
20260509223102 92 0 1.0 9.0 0.00 0.00 0.00 52 1011.6
20260509221559 93 250 1.0 9.0 0.00 0.00 0.00 51 1011.3
20260509220100 93 238 3.0 8.0 0.00 0.00 0.00 51 1011.2
20260509214601 93 267 2.0 11.0 0.00 0.00 0.00 51 1011.2
20260509213115 94 238 3.0 9.0 0.00 0.00 0.00 50 1011.0
20260509211605 94 237 1.0 7.0 0.00 0.00 0.00 51 1011.0
20260509210105 96 259 2.0 9.0 0.00 0.00 0.00 48 1010.9
20260509204600 95 236 3.0 8.0 0.00 0.00 0.00 48 1010.8
20260509203103 95 255 2.0 14.0 0.00 0.00 0.00 49 1010.9
20260509201607 95 233 3.0 9.0 0.00 0.00 0.00 48 1011.0
20260509200104 95 206 4.0 9.0 0.00 0.00 0.00 49 1011.1
20260509194602 95 232 4.0 10.0 0.00 0.00 0.00 47 1011.3
20260509193059 95 266 4.0 12.0 0.00 0.00 0.00 47 1011.4
20260509191609 95 298 4.0 13.0 0.00 0.00 0.00 46 1011.6
20260509190100 94 176 3.0 16.0 0.00 0.00 0.00 48 1011.7
20260509184610 96 209 2.0 8.0 0.00 0.00 0.00 47 1011.9
20260509183101 95 227 8.0 17.0 0.00 0.00 0.00 48 1012.0
20260509181607 93 232 3.0 14.0 0.00 0.00 0.00 51 1012.1
20260509180115 94 257 6.0 11.0 0.00 0.00 0.00 49 1012.3
20260509174600 94 274 3.0 13.0 0.00 0.00 0.00 48 1012.4
20260509173107 94 219 5.0 12.0 0.00 0.00 0.00 47 1012.4